This demonstration page uses our WeatherBlox Daily Observations layout. Learn more.

Left ArrowRight Arrow

39.92423, -83.80882

Hourly Observations for August 14, 2019

Temp ( °F °C ) Dew Point ( °F °C ) Humidity (%) Winds ( mph kmh ) Pressure ( in mb ) Visibility ( mi km ) Precip ( " mm )
12:56 am 00:56 Clear with Mist and Fog 68 20 68 20 100 100 W 3 6 29.88 1012 3 5 N/A
1:46 am 01:46 Clear with Mist and Fog 68 20 68 20 100 100 W 5 7 29.87 1012 2 3 N/A
1:56 am 01:56 Clear with Mist and Fog 68 20 68 20 100 100 WNW 5 7 29.88 1012 3 4 N/A
2:03 am 02:03 Clear with Mist and Fog 68 20 68 20 100 100 N N/A 29.87 1012 3 5 N/A
2:17 am 02:17 Clear with Mist and Fog 68 20 68 20 100 100 N N/A 29.87 1012 2 3 N/A
2:45 am 02:45 Partly Cloudy with Mist and Fog 68 20 68 20 100 100 NW 6 9 29.87 1012 2 2 N/A
2:56 am 02:56 Mostly Clear with Mist and Fog 68 20 68 20 100 100 NW 5 7 29.88 1012 2 2 N/A
3:05 am 03:05 Mostly Clear with Mist and Fog 68 20 68 20 100 100 NW 5 7 29.86 1011 2 3 N/A
3:28 am 03:28 Mostly Clear with Mist and Fog 68 20 68 20 100 100 WNW 5 7 29.86 1011 2 3 N/A
3:34 am 03:34 Mostly Cloudy with Mist and Fog 68 20 68 20 100 100 WNW 3 6 29.87 1012 1 2 N/A
3:38 am 03:38 Mostly Cloudy with Mist and Fog 68 20 68 20 100 100 N N/A 29.86 1011 1 1 N/A
3:40 am 03:40 Mostly Cloudy with Fog 68 20 68 20 100 100 WNW 3 6 29.86 1011 1 1 N/A
3:48 am 03:48 Mostly Cloudy with Fog 68 20 68 20 100 100 NW 6 9 29.87 1012 0 0 N/A
3:56 am 03:56 Cloudy with Fog 68 20 68 20 100 100 NW 6 9 29.88 1012 0 0 N/A
4:07 am 04:07 Cloudy with Fog 68 20 68 20 100 100 NW 5 7 29.87 1012 0 0 N/A
4:56 am 04:56 Cloudy with Fog 68 20 68 20 100 100 N N/A 29.88 1012 0 0 N/A
5:56 am 05:56 Cloudy with Fog 68 20 68 20 100 100 NNW 3 6 29.89 1012 0 0 N/A
6:56 am 06:56 Cloudy with Fog 68 20 68 20 100 100 N N/A 29.92 1013 5 8 N/A
7:56 am 07:56 Cloudy with Fog 69 20.6 69 20.6 100 100 NNE 3 6 29.93 1014 5 8 N/A
8:45 am 08:45 Cloudy with Fog 70 21 70 21 100 100 N N/A 29.93 1013 1 1 N/A
8:53 am 08:53 Cloudy with Mist and Fog 70 21 70 21 100 100 N N/A 29.93 1013 1 1 N/A
8:56 am 08:56 Cloudy with Mist and Fog 69 20.6 69 20.6 100 100 N N/A 29.95 1014 1 2 N/A
9:07 am 09:07 Cloudy with Mist and Fog 70 21 70 21 100 100 N N/A 29.94 1014 2 2 N/A
9:17 am 09:17 Cloudy with Mist and Fog 70 21 70 21 100 100 N N/A 29.93 1013 2 3 N/A
9:29 am 09:29 Cloudy with Mist and Fog 70 21 70 21 100 100 N N/A 29.93 1013 3 4 N/A
9:43 am 09:43 Cloudy with Mist and Fog 72 22 72 22 100 100 N N/A 29.92 1013 3 5 N/A
9:56 am 09:56 Cloudy with Mist and Fog 72 22.2 72 22.2 100 100 N N/A 29.94 1014 4 6 N/A
10:56 am 10:56 Mostly Cloudy 76 24.4 73 22.8 91 91 N N/A 29.95 1014 10 16 N/A
11:27 am 11:27 Mostly Cloudy 79 26 70 21 74 74 N N/A 29.92 1013 10 16 N/A
11:56 am 11:56 Mostly Cloudy 80 26.7 70 21.1 71 71 N N/A 29.95 1014 10 16 N/A
12:06 pm 12:06 Mostly Cloudy 81 27 70 21 70 70 N N/A 29.92 1013 10 16 N/A
12:21 pm 12:21 Mostly Cloudy 81 27 70 21 70 70 N N/A 29.92 1013 10 16 N/A
12:37 pm 12:37 Cloudy 81 27 70 21 70 70 N N/A 29.91 1013 10 16 N/A
12:56 pm 12:56 Mostly Cloudy 81 27.2 70 21.1 69 69 W 3 6 29.94 1014 10 16 N/A
1:56 pm 13:56 Cloudy 82 27.8 68 20 63 63 VRB 6 9 29.93 1013 10 16 N/A
2:56 pm 14:56 Mostly Cloudy 85 29.4 69 20.6 59 59 SW 9 15 29.91 1013 10 16 N/A
3:56 pm 15:56 Sunny 83 28.3 70 21.1 65 65 SW 6 9 29.91 1013 10 16 N/A
4:56 pm 16:56 Partly Cloudy 81 27.2 70 21.1 69 69 E 6 9 29.90 1013 10 16 N/A
5:56 pm 17:56 Mostly Cloudy 79 26.1 68 20 69 69 E 10 17 29.89 1012 10 16 N/A
6:56 pm 18:56 Mostly Cloudy 78 25.6 69 20.6 74 74 E 7 11 29.90 1012 10 16 N/A
7:26 pm 19:26 Cloudy with Heavy Rain 72 22 66 19 83 83 E 21 33 29.87 1012 2 3 0.20 5.08
7:33 pm 19:33 Cloudy with Light Rain 70 21 66 19 88 88 ENE 13 20 29.89 1012 2 3 0.26 6.60
7:41 pm 19:41 Cloudy with Light Rain 70 21 66 19 88 88 NE 9 15 29.89 1012 10 16 0.26 6.60
7:56 pm 19:56 Cloudy 70 21.1 68 20 93 93 VRB 3 6 29.91 1013 10 16 0.26 6.60
8:56 pm 20:56 Clear 69 20.6 68 20 96 96 SE 6 9 29.92 1013 10 16 N/A
9:56 pm 21:56 Mostly Clear 69 20.6 67 19.4 93 93 NE 3 6 29.94 1014 10 16 N/A
10:56 pm 22:56 Clear 67 19.4 67 19.4 100 100 ESE 6 9 29.94 1014 10 16 N/A
11:56 pm 23:56 Clear 66 18.9 66 18.9 100 100 E 3 6 29.94 1014 10 16 N/A

Powered by AerisWeather